GFSSGP_700_rhum_105.txt.gz
RH
11 9 7 24 28 32 27 23 20 17 18 20 20 21 27 24 28 30 43 46 44 38 26 22 24 27 45 83 70 69 63 59 64 77 68 74 76 84 66 19 6 6 7 8 8 8 11 11 12
11 9 8 27 36 33 23 19 17 17 18 20 22 22 26 30 32 38 38 38 32 27 22 24 28 33 46 83 86 73 67 62 60 72 77 78 78 95 85 34 8 9 12 11 12 12 12 13 14
11 9 11 34 35 31 24 20 17 18 18 18 18 20 24 28 28 29 33 39 32 24 29 27 25 36 35 47 86 90 79 68 71 71 88 82 79 92 71 42 11 14 14 14 14 14 14 14 15
10 14 21 32 22 18 18 17 17 17 17 20 24 27 28 28 35 35 35 35 34 33 28 31 21 23 24 26 45 85 86 82 83 84 95 99 88 72 59 44 11 18 16 14 15 22 24 19 19
11 18 26 27 21 19 17 17 17 17 17 19 24 24 25 31 30 36 39 38 39 43 39 33 28 23 21 18 16 29 76 89 90 97 100 92 93 92 87 60 17 17 19 17 18 20 21 22 27
13 24 26 26 21 19 19 17 16 17 18 16 22 25 27 30 34 37 39 42 49 44 31 34 36 35 30 18 17 24 32 64 97 96 99 98 65 94 90 67 32 18 19 20 22 27 32 26 29
12 30 27 27 25 23 18 17 16 18 19 19 24 25 28 31 32 39 46 44 37 32 32 35 33 38 24 20 21 21 22 34 83 82 91 98 100 99 80 58 34 24 20 24 30 31 34 29 31
14 29 30 28 27 20 18 16 18 20 20 19 24 27 27 27 30 33 36 39 44 32 33 31 20 23 22 19 22 26 28 38 60 90 89 98 100 100 79 66 46 28 27 30 41 37 35 34 34
28 35 32 20 24 18 18 18 17 17 20 19 21 24 25 28 30 34 37 43 42 31 32 33 23 17 19 27 49 57 63 69 65 98 83 100 100 92 80 32 37 52 33 34 36 39 38 35 33
24 30 28 21 24 21 20 19 19 17 21 20 21 20 24 25 31 37 40 33 32 27 29 28 26 13 20 54 74 81 88 89 81 70 93 95 99 90 65 29 24 35 41 54 42 42 39 35 32
26 30 25 25 23 22 21 21 20 19 18 19 19 19 23 25 26 35 33 31 32 29 30 28 26 16 25 66 71 89 99 100 100 88 78 100 99 91 53 28 20 26 25 31 45 41 38 34 36
38 31 29 26 23 22 21 22 22 22 21 20 20 20 20 21 24 28 31 32 29 32 32 27 27 18 23 64 71 92 98 99 100 77 80 100 99 94 75 46 18 28 28 39 42 42 38 36 32
37 34 31 28 25 24 25 25 23 24 24 22 22 21 20 21 22 27 27 28 28 33 33 30 27 19 22 63 71 86 99 98 100 99 95 100 99 87 82 47 21 22 26 34 40 45 39 37 35
40 39 36 34 34 31 26 25 25 26 25 24 23 22 23 22 22 26 29 27 31 35 33 32 24 20 30 71 75 85 100 99 98 96 98 100 94 85 85 75 34 24 26 36 44 45 45 42 36
43 41 40 38 35 32 26 24 25 25 24 24 23 23 23 21 23 26 36 41 33 33 33 30 21 25 44 76 73 82 95 98 99 100 94 98 94 77 82 75 32 26 28 40 49 50 51 44 41
44 44 41 33 34 30 29 32 30 26 26 24 23 23 23 21 25 37 38 41 44 32 33 27 19 45 54 75 75 74 92 99 96 100 100 93 90 85 82 82 73 29 32 40 50 51 50 50 46
37 32 26 25 33 35 35 35 34 30 27 25 24 23 24 31 33 34 36 42 42 34 34 23 26 50 61 80 72 69 77 88 98 98 98 98 93 91 97 86 90 68 36 39 50 51 50 50 50
22 24 23 29 32 34 34 35 36 34 34 24 25 28 28 30 29 29 34 34 40 38 32 22 33 44 65 76 72 68 64 73 82 88 90 82 96 89 94 97 90 98 45 46 48 50 52 55 55
17 18 22 23 24 32 36 42 40 36 36 29 23 24 23 29 28 28 29 35 37 43 32 22 27 50 56 68 71 73 79 80 90 83 88 88 92 99 98 99 94 82 93 48 53 55 58 61 66
22 21 21 20 25 30 32 38 41 44 40 41 27 27 24 22 26 28 29 33 38 43 32 23 20 55 60 68 75 84 88 83 89 94 88 87 92 100 100 100 95 89 99 70 77 72 65 71 71
26 27 27 25 23 28 35 44 42 43 40 36 27 27 24 22 24 29 30 33 39 43 32 23 16 44 67 66 73 78 80 77 84 98 99 98 97 97 100 100 98 96 99 95 97 99 88 71 76
30 33 32 31 29 33 34 46 48 45 38 36 28 26 26 25 23 26 30 32 33 38 32 22 16 22 55 74 72 73 76 79 94 98 99 97 100 100 100 100 99 98 99 100 100 100 97 83 84
27 28 35 33 31 32 36 38 44 42 36 33 30 26 25 26 24 23 28 28 32 37 32 23 17 17 28 52 70 72 80 84 95 100 99 100 98 100 100 100 98 98 99 100 100 100 98 97 99
26 27 31 36 35 43 36 38 37 37 33 30 29 25 22 22 22 23 28 33 36 34 31 25 19 17 20 42 68 86 84 80 91 99 98 100 99 98 100 100 99 100 100 99 100 99 98 99 96
31 38 52 54 54 50 36 39 38 34 33 27 27 24 26 25 24 28 32 33 32 29 31 27 21 20 20 28 56 80 94 90 83 99 99 99 98 100 100 100 100 98 100 100 100 100 100 99 98
22 32 52 66 68 48 42 64 50 41 48 46 30 29 29 26 28 29 34 34 33 31 33 27 24 21 20 21 43 70 97 93 94 94 100 100 100 99 100 100 100 100 100 100 99 100 99 99 98
22 33 30 46 44 55 54 53 41 49 60 46 31 30 34 31 31 32 35 37 30 33 34 27 27 26 21 20 28 56 82 95 96 99 98 100 100 100 99 99 100 100 100 100 100 100 100 99 99
25 24 31 37 72 80 49 45 47 48 63 48 44 39 41 32 38 43 39 32 30 34 33 28 29 29 29 25 21 34 61 77 81 90 90 93 98 98 100 99 100 100 97 99 99 99 100 98 99
46 27 28 32 61 71 73 51 59 61 96 81 57 48 45 47 33 36 35 34 32 36 29 31 28 29 31 32 31 24 27 40 55 76 80 87 95 96 96 100 100 100 98 96 100 100 99 98 100
44 59 62 32 40 50 50 51 54 54 76 84 65 61 55 51 56 40 43 43 34 35 31 33 32 33 36 35 36 35 32 27 30 38 56 63 70 77 88 88 87 93 97 100 100 96 94 98 100

GFSSGP_700_rhum_108.txt.gz
RH
9 10 10 10 24 24 21 22 22 21 18 17 17 18 19 21 21 25 29 38 36 37 29 18 17 22 26 48 88 78 66 65 64 60 57 39 35 33 26 13 6 7 8 8 13 9 9 9 9
10 10 9 12 23 28 21 20 18 18 18 20 19 18 17 21 25 27 32 34 32 32 27 21 25 23 31 43 85 74 67 66 66 73 63 55 59 66 60 25 5 6 7 9 10 11 10 10 9
11 10 10 14 25 21 21 22 19 18 18 18 17 17 21 24 29 29 28 31 35 31 33 35 30 22 31 40 68 83 75 71 77 78 77 72 82 88 74 39 6 7 10 10 11 13 12 11 11
11 10 12 18 14 17 19 19 20 20 18 18 18 18 19 22 27 32 32 31 30 35 37 45 38 29 22 36 42 76 91 86 67 83 99 77 84 79 64 50 8 11 14 14 14 13 13 15 14
12 11 19 18 10 16 19 20 22 20 18 17 19 21 22 24 28 31 30 31 36 38 43 41 30 32 29 22 20 20 57 100 91 88 95 62 96 78 69 58 11 17 20 18 16 16 17 17 20
12 12 18 18 12 16 18 22 19 20 18 17 18 20 23 26 27 29 32 29 36 39 38 33 30 34 34 36 26 21 27 53 99 100 96 87 98 96 93 58 13 19 22 19 18 21 23 26 32
10 14 16 18 13 13 18 20 20 20 19 19 19 19 24 26 28 28 29 31 35 38 40 32 29 29 17 25 31 24 21 35 68 92 97 100 85 97 97 58 19 22 21 20 20 24 27 29 31
11 23 27 15 16 11 18 20 24 21 20 20 19 19 21 23 24 27 30 33 37 39 40 30 31 32 24 16 17 22 24 37 47 59 67 94 90 97 97 83 41 22 21 25 29 32 36 37 40
14 30 24 11 14 10 15 20 20 22 22 21 21 20 20 22 25 27 27 32 36 36 36 28 30 31 29 20 17 20 30 38 56 58 62 82 80 93 100 94 28 23 23 29 34 34 35 35 35
20 19 17 14 14 15 15 23 23 22 22 21 19 21 22 22 24 27 30 34 34 31 29 26 30 31 31 23 18 36 62 70 69 78 74 74 88 88 99 64 45 26 30 34 37 40 38 44 30
25 23 21 19 19 22 20 23 22 22 22 22 20 20 21 20 22 26 27 34 32 26 26 25 30 30 29 24 20 52 74 74 84 94 97 100 100 97 96 61 44 44 32 34 39 42 47 34 32
33 29 30 28 27 27 26 24 24 24 24 22 21 21 22 22 21 21 24 28 23 22 27 24 29 29 34 25 23 58 82 98 100 96 96 98 100 97 100 73 29 47 47 53 62 68 47 36 30
40 37 36 37 35 32 31 30 31 27 26 25 23 21 22 22 22 22 21 21 22 29 25 29 31 32 32 29 32 73 93 100 100 99 99 98 94 96 94 60 25 33 38 46 46 42 41 40 32
40 41 40 39 39 37 34 32 33 28 26 25 24 23 22 24 23 22 23 21 26 40 36 30 32 32 29 28 43 81 93 99 99 100 100 100 95 99 62 29 21 21 25 31 38 46 43 39 42
43 42 38 39 38 37 32 30 32 32 26 25 25 25 23 23 24 24 24 23 29 41 42 32 34 31 21 42 61 80 92 99 98 99 100 98 98 99 72 29 22 25 27 38 49 49 49 44 45
36 36 38 33 32 34 35 33 33 31 29 24 26 27 24 23 24 24 24 24 34 40 40 32 32 27 28 50 74 81 92 96 99 98 100 94 95 99 72 62 27 26 30 44 50 50 48 47 47
26 26 24 23 23 21 23 27 29 32 33 30 27 29 25 24 23 22 25 30 33 39 38 39 31 25 37 49 71 79 85 91 95 100 95 99 99 99 92 67 46 28 31 39 48 47 49 47 52
22 24 21 22 22 22 29 31 35 35 35 33 30 30 26 24 25 29 28 30 31 38 41 40 32 24 37 49 57 78 84 80 83 92 100 99 100 96 85 86 62 32 32 33 42 52 50 51 53
16 20 21 20 20 21 20 21 24 29 28 32 32 35 29 28 27 31 30 29 32 40 42 41 32 24 37 55 63 75 82 80 81 86 82 95 99 94 96 83 78 85 43 32 38 47 52 58 64
21 20 22 22 21 23 22 23 22 23 26 28 26 36 31 29 29 29 30 30 32 42 43 44 30 23 24 52 60 68 81 91 82 84 89 91 98 91 88 90 88 91 90 60 42 39 44 60 63
29 29 29 28 26 31 31 29 27 22 29 28 28 36 31 29 30 26 23 22 34 43 44 36 29 23 17 51 60 64 76 88 95 94 91 93 90 90 98 97 97 97 89 94 49 41 43 45 59
42 35 34 32 32 35 33 36 31 27 27 30 33 38 31 30 32 27 27 24 35 41 40 32 28 24 16 34 62 65 72 85 88 89 91 91 92 99 98 96 100 98 96 90 68 60 47 57 68
34 32 27 28 34 35 36 36 30 31 28 22 41 35 30 29 29 28 26 26 32 38 31 34 29 23 16 18 45 68 79 85 92 97 98 100 98 99 100 99 98 100 98 90 96 88 67 78 100
21 22 26 25 32 45 38 38 36 36 29 27 33 33 31 29 31 29 27 26 32 31 31 36 29 23 17 17 26 52 78 85 92 99 99 99 100 100 100 98 98 100 99 99 100 98 95 99 99
20 23 49 53 55 48 34 38 38 36 28 36 41 29 28 29 32 29 27 26 29 29 35 31 30 22 18 17 23 50 77 87 93 97 99 99 100 99 99 100 100 100 100 100 100 100 100 100 100
37 23 38 61 61 47 41 45 39 47 43 42 50 38 31 33 33 29 25 25 24 33 36 28 30 22 20 14 20 48 75 86 86 90 96 99 100 100 100 100 100 100 100 99 100 100 100 100 100
38 32 28 32 37 56 49 46 42 31 40 58 52 50 42 32 30 27 23 24 32 37 39 31 27 24 23 14 17 39 66 82 75 88 97 100 100 100 100 100 100 100 100 100 100 100 100 100 100
43 41 34 40 64 56 55 52 47 50 55 58 57 64 61 52 44 30 29 33 38 45 35 34 26 27 26 21 17 25 47 72 81 85 86 99 100 100 100 100 100 100 100 99 100 100 100 100 100
52 51 53 46 35 55 74 55 56 66 59 71 84 97 88 62 58 47 41 36 42 34 33 34 28 28 29 29 26 20 27 44 68 80 83 87 98 100 100 99 100 100 100 100 99 99 100 99 100
38 58 88 88 69 72 59 54 40 49 66 70 99 100 98 86 70 73 54 44 38 33 34 30 30 29 31 34 36 33 28 25 36 57 70 85 90 94 97 99 100 100 99 92 100 99 100 100 100

GFSSGP_700_rhum_111.txt.gz
RH
7 8 8 10 22 24 22 22 21 21 18 17 17 17 17 15 16 17 21 26 30 29 31 28 17 23 23 26 44 62 80 66 63 63 60 52 45 41 40 44 39 36 33 32 14 23 28 10 8
8 8 8 10 17 26 21 19 18 20 19 18 17 18 17 16 16 16 17 22 28 30 33 31 33 32 24 30 47 87 85 70 70 67 61 54 47 43 34 26 15 10 13 12 8 17 13 10 10
8 9 9 10 12 15 22 19 20 21 22 22 19 18 18 15 16 18 19 25 30 32 31 37 36 33 30 26 46 91 86 76 78 72 72 56 43 42 50 41 22 6 7 7 10 12 11 10 10
9 10 9 11 9 14 24 23 21 21 22 20 20 19 18 17 18 21 24 31 31 28 36 40 41 35 31 25 37 75 89 83 85 86 81 71 52 77 86 73 39 7 7 8 9 11 11 11 10
11 10 10 9 8 10 18 20 21 20 21 20 20 20 20 19 21 26 27 28 27 32 38 38 35 29 31 34 26 32 65 92 92 90 85 81 67 80 91 80 57 15 9 12 10 11 12 13 14
12 12 13 9 7 8 12 20 21 19 20 22 22 20 20 21 24 26 27 29 29 33 36 38 36 30 28 26 32 30 25 26 60 81 93 90 85 81 97 77 55 37 14 16 16 14 12 13 18
11 13 11 9 8 8 12 20 20 20 21 21 20 21 19 19 23 26 24 26 30 34 37 39 35 29 30 29 19 20 35 33 28 53 81 73 96 74 86 78 86 36 20 20 19 18 18 18 26
11 16 16 11 10 8 9 20 22 26 24 25 22 21 20 21 21 21 24 27 29 32 36 36 32 28 30 31 27 21 15 24 34 33 43 64 84 91 91 99 64 36 21 21 17 20 22 26 35
16 18 19 12 12 10 11 20 22 23 23 22 25 23 22 22 23 24 23 26 30 32 37 37 30 26 31 33 28 25 19 23 30 38 48 55 78 89 99 98 64 53 27 18 19 22 25 29 36
22 19 18 15 15 14 14 17 17 21 22 22 23 23 23 22 23 21 24 27 27 28 36 34 30 27 31 35 28 28 25 20 35 46 54 58 57 74 88 96 88 82 28 21 25 28 32 38 42
25 24 22 21 20 20 17 18 20 23 23 22 23 23 23 24 24 23 22 22 22 34 28 28 27 27 32 36 31 30 27 20 32 72 80 73 70 72 78 90 97 77 27 23 27 30 34 36 41
32 29 27 26 25 26 27 22 25 25 24 23 24 25 26 24 24 24 23 22 21 21 21 29 29 26 32 35 34 32 27 22 50 76 92 97 89 92 96 98 97 63 31 32 30 30 34 39 38
37 35 32 32 36 35 33 28 23 21 22 26 27 26 26 26 26 26 25 24 24 22 22 36 39 30 33 36 35 32 26 37 64 82 95 98 99 100 100 100 83 34 32 39 33 34 39 58 47
34 37 38 37 39 38 34 28 33 24 22 24 31 27 26 25 26 26 25 24 23 23 23 28 42 32 34 34 34 30 37 60 81 92 100 98 98 98 100 100 96 39 35 37 41 43 63 42 32
36 36 38 38 35 36 36 32 34 30 28 26 29 30 26 25 25 28 25 25 24 24 24 26 42 35 33 33 26 44 51 70 88 99 98 98 98 97 97 98 98 44 41 47 53 62 52 39 36
36 39 39 32 31 32 36 22 32 34 34 33 32 31 30 24 25 28 24 25 25 25 24 29 42 42 36 27 32 48 68 81 93 99 100 100 98 96 97 98 92 39 47 46 54 52 45 35 40
26 26 25 25 24 24 25 22 22 22 22 22 27 31 30 26 27 27 24 24 25 25 25 32 44 46 34 25 36 57 71 81 88 95 100 99 100 97 98 97 61 37 42 43 54 49 42 42 42
21 24 22 23 22 18 21 20 21 26 30 28 30 33 27 28 28 27 24 27 28 28 32 37 46 46 34 24 35 53 67 76 76 86 98 98 100 99 100 91 46 40 43 42 51 49 44 48 48
17 19 18 19 17 18 15 18 18 20 20 16 18 20 22 28 30 31 24 26 31 30 31 33 48 46 31 24 27 54 52 75 79 73 99 98 100 100 97 56 49 37 42 36 48 48 50 53 56
18 19 16 11 12 24 24 21 19 27 28 19 20 16 22 20 30 34 29 29 32 34 31 34 49 43 30 25 20 54 60 72 87 76 82 100 100 99 98 94 70 36 36 38 45 50 49 59 57
29 29 29 23 28 31 31 27 25 31 28 16 14 12 19 30 27 35 30 29 29 30 28 35 47 39 29 25 17 48 59 63 81 88 87 87 96 99 98 97 77 52 34 36 34 45 51 50 56
36 31 31 36 39 40 32 38 29 29 27 18 14 18 26 41 40 38 32 29 28 26 29 42 43 37 30 25 18 39 58 65 71 83 86 95 99 97 98 98 87 61 42 50 39 46 48 52 57
19 30 35 37 32 29 30 41 28 31 29 16 14 22 29 38 37 38 32 28 28 30 34 44 45 36 31 24 18 29 54 64 75 90 90 92 98 100 98 98 90 76 54 77 87 51 46 56 59
27 28 27 26 35 47 32 36 29 28 25 22 23 42 37 41 37 37 34 29 28 35 41 46 45 37 30 22 18 23 45 66 74 82 94 94 97 99 99 100 99 97 94 91 95 92 95 54 60
20 27 40 42 60 48 32 35 32 31 29 36 47 35 25 45 39 37 34 29 29 33 45 46 43 36 30 21 19 21 41 65 81 86 84 89 95 97 98 98 99 99 98 100 98 99 99 77 91
37 40 39 42 50 40 34 46 36 33 38 39 32 38 50 55 48 37 30 29 28 31 44 52 40 28 28 20 19 20 39 68 90 90 93 94 99 98 100 100 98 99 100 100 100 100 100 99 99
40 38 37 36 31 53 37 36 32 28 40 50 56 55 60 60 52 40 32 29 29 28 41 49 36 30 23 22 16 19 40 72 87 90 95 100 100 99 100 99 99 100 99 99 100 100 100 100 100
53 52 42 44 60 49 43 49 38 40 61 62 54 45 64 62 44 36 32 30 32 34 52 48 37 32 23 24 18 20 33 68 83 83 96 98 99 100 98 100 100 100 100 99 100 100 100 100 100
38 50 61 61 59 65 54 40 55 68 62 71 68 65 69 79 58 63 55 38 34 45 58 51 38 32 23 26 23 19 25 40 61 76 89 99 98 98 97 100 98 100 99 100 100 100 100 100 100
36 57 62 85 92 92 90 66 48 48 57 55 57 62 62 84 75 74 78 60 46 52 63 60 36 31 27 30 30 25 21 24 38 55 78 92 100 100 100 100 100 99 100 100 99 100 100 100 100

GFSSGP_700_rhum_114.txt.gz
RH
6 7 8 9 12 19 21 22 21 19 19 19 18 18 18 18 16 16 15 18 23 28 28 30 28 24 26 22 23 27 38 67 71 64 59 55 62 68 58 51 51 42 37 40 39 31 28 32 13
6 7 9 9 13 17 19 21 22 23 22 20 19 20 19 17 16 16 18 21 22 26 31 32 27 24 26 26 23 32 52 73 73 70 66 64 59 53 47 45 46 39 34 36 39 19 24 29 10
7 8 8 9 9 10 19 20 20 23 22 23 24 22 19 18 17 17 21 23 26 31 29 30 31 27 28 28 24 35 67 85 79 75 77 76 73 54 52 48 38 20 13 10 14 12 12 16 10
9 9 9 9 8 11 21 20 20 20 22 23 23 20 20 20 18 18 19 27 28 27 32 38 36 31 27 28 30 28 55 89 79 83 89 80 62 58 46 41 42 40 11 11 14 7 13 11 10
8 9 10 8 7 7 11 21 23 20 20 21 22 20 21 20 19 21 22 27 28 29 33 37 38 34 28 28 29 31 31 59 81 86 77 83 94 76 53 70 72 58 15 15 28 9 11 11 12
9 10 10 8 8 8 8 11 16 21 20 19 21 21 22 20 20 24 26 28 25 27 33 37 40 36 29 30 30 24 32 28 40 72 65 79 84 86 98 96 95 59 20 30 14 10 13 14 14
11 11 11 9 8 8 8 10 19 21 20 22 24 23 23 21 22 22 23 24 26 29 31 35 39 38 29 30 32 28 20 28 38 34 30 66 57 77 78 77 97 70 52 31 17 14 17 16 18
16 13 14 11 10 9 10 10 19 22 23 24 25 26 26 24 23 23 23 24 26 28 30 32 37 37 31 28 33 33 27 24 18 18 29 30 40 58 74 84 96 91 82 30 24 18 16 18 26
22 18 17 14 12 11 11 13 16 23 23 24 24 27 28 26 24 24 24 23 25 28 28 27 37 39 32 29 32 36 31 29 27 22 23 33 37 42 63 90 97 99 82 34 29 19 20 26 35
25 23 20 18 16 15 13 14 16 19 18 23 23 24 24 24 25 24 22 22 24 29 24 27 30 34 34 32 32 35 34 32 35 33 26 25 31 47 52 80 95 92 96 38 26 20 24 29 36
30 27 24 22 21 20 19 18 19 18 15 18 22 23 23 23 24 25 25 24 22 22 22 21 24 31 36 32 32 36 37 38 46 46 37 34 47 61 64 74 80 91 78 33 24 20 26 29 33
35 33 31 28 26 25 24 23 22 22 19 17 21 22 22 24 25 26 26 26 23 23 24 23 25 31 40 33 33 36 38 42 48 48 41 45 68 82 72 71 96 88 84 37 22 21 31 40 45
34 37 37 36 33 30 29 28 24 24 24 22 22 24 26 28 27 27 26 26 24 26 25 23 23 25 33 40 35 34 37 39 50 46 46 72 91 94 99 86 93 87 98 51 25 27 34 40 42
31 37 38 39 39 37 36 32 35 26 26 28 31 30 29 30 30 27 27 27 26 26 25 25 24 24 26 40 36 36 34 34 49 47 67 78 90 98 100 97 99 100 99 94 27 28 35 37 42
29 33 36 36 35 36 34 34 31 31 31 31 32 35 36 34 33 32 27 29 28 26 25 26 27 26 26 40 44 38 27 40 52 61 82 87 96 99 99 100 100 98 99 78 28 34 36 43 50
35 36 38 32 29 31 34 31 26 31 28 26 28 31 34 32 32 33 32 29 28 26 23 25 28 27 30 42 46 32 26 48 61 78 90 92 91 97 98 100 98 100 93 42 35 38 40 62 53
33 34 31 30 26 25 26 22 23 22 21 21 22 25 24 23 24 29 31 29 29 24 24 25 26 28 31 45 48 29 25 53 70 80 90 81 98 99 98 99 99 98 66 38 37 36 43 68 43
26 24 27 26 24 21 19 14 16 14 15 17 19 20 21 19 17 21 26 28 29 24 24 28 28 28 32 45 49 27 20 53 70 81 76 95 100 98 99 100 100 99 95 42 45 44 55 56 47
26 28 28 26 22 17 11 8 10 9 12 14 13 12 10 11 13 17 20 27 28 24 27 28 29 31 38 47 48 26 20 59 72 81 73 99 97 97 100 99 100 99 84 42 45 50 54 44 48
17 22 21 17 14 17 21 17 19 15 15 16 16 15 12 13 12 12 17 28 29 24 28 32 32 34 43 50 44 26 19 52 74 78 68 90 99 98 97 99 100 100 84 48 46 45 48 46 49
25 21 17 17 25 26 32 20 13 13 12 17 15 14 14 22 23 14 16 27 29 27 26 28 33 37 50 52 41 26 18 45 68 72 74 79 98 98 98 100 100 97 51 44 38 45 49 44 47
20 17 20 26 44 42 37 42 21 17 23 23 15 13 16 22 35 38 37 29 34 29 28 26 31 42 53 52 38 25 18 35 72 74 74 84 88 100 100 99 97 77 57 52 37 46 51 49 50
16 19 26 32 44 37 33 39 24 22 19 21 16 11 28 41 29 39 40 38 35 30 28 26 32 47 56 55 37 25 18 30 70 82 80 85 90 92 100 98 77 69 67 56 41 39 50 52 52
33 34 33 34 31 51 31 31 18 21 26 26 23 34 44 35 20 31 45 40 37 30 28 27 32 45 60 54 36 25 19 26 52 77 81 83 94 98 99 100 99 96 72 58 45 40 46 55 57
30 38 38 32 59 46 26 34 25 24 33 32 29 36 29 46 43 36 51 41 37 33 31 30 33 40 57 52 32 23 20 23 45 72 84 84 89 94 100 98 97 93 82 77 50 46 46 56 62
29 29 36 40 43 33 29 40 30 28 30 29 41 52 56 51 56 63 56 48 39 36 33 32 33 44 52 51 28 23 20 22 41 68 79 89 85 88 99 99 99 99 98 84 72 61 63 69 89
41 44 41 40 40 47 35 31 31 30 38 40 53 58 55 46 59 69 63 46 41 36 31 32 34 47 56 47 26 23 18 26 49 75 88 89 86 83 87 99 100 99 99 99 99 98 97 98 98
51 48 46 44 57 51 42 43 39 54 52 58 55 52 45 40 35 38 66 60 44 36 31 31 36 53 61 36 25 22 19 33 56 84 92 86 87 98 98 100 99 100 100 100 100 100 100 100 99
46 54 54 53 70 75 80 45 86 62 58 56 56 55 44 38 37 53 74 65 41 36 32 30 37 57 58 28 26 22 21 36 62 88 88 91 94 99 100 100 99 99 98 99 100 100 100 100 100
40 46 45 57 90 77 87 71 55 54 54 52 59 47 42 39 46 86 77 66 51 35 34 33 43 57 49 27 28 26 23 33 53 80 76 80 93 99 98 98 100 100 100 100 98 100 100 100 100